This is the latest recevied weather packets stored in our database for station/object W0WC. If no packets are shown the sender has not sent any weather packets the latest 10 day(s).
| Time | Temp. | Humidity | Pressure | Rain* | Wind** | Luminosity | Snow |
|---|---|---|---|---|---|---|---|
| 1777542990 | 6.11° C | 95% | 1018.9 hPa | 0 mm | - | 0 W/m² | - |
| 1777542686 | 6.11° C | 95% | 1019.1 hPa | 0 mm | - | 0 W/m² | - |
| 1777542383 | 6.11° C | 95% | 1019 hPa | 0 mm | - | 0 W/m² | - |
| 1777542080 | 6.11° C | 94% | 1019 hPa | 0 mm | - | 0 W/m² | - |
| 1777541777 | 6.11° C | 94% | 1019.1 hPa | 0 mm | - | 0 W/m² | - |
| 1777541474 | 6.11° C | 94% | 1019 hPa | 0 mm | - | 0 W/m² | - |
| 1777541170 | 6.67° C | 94% | 1019.1 hPa | 0 mm | - | 0 W/m² | - |
| 1777540867 | 6.67° C | 94% | 1019.1 hPa | 0 mm | - | 0 W/m² | - |
| 1777540565 | 6.67° C | 93% | 1019.2 hPa | 0 mm | - | 0 W/m² | - |
| 1777540261 | 6.67° C | 93% | 1019.2 hPa | 0 mm | - | 0 W/m² | - |
| 1777539956 | 6.67° C | 93% | 1019.3 hPa | 0 mm | - | 0 W/m² | - |
| 1777539653 | 6.67° C | 93% | 1019.6 hPa | 0 mm | - | 0 W/m² | - |
| 1777539349 | 6.67° C | 93% | 1019.4 hPa | 0 mm | - | 0 W/m² | - |
| 1777539046 | 6.67° C | 93% | 1019.3 hPa | 0 mm | - | 0 W/m² | - |
| 1777538742 | 6.67° C | 92% | 1019.3 hPa | 0 mm | - | 0 W/m² | - |
| 1777538437 | 7.22° C | 92% | 1019.2 hPa | 0 mm | - | 0 W/m² | - |
| 1777538133 | 7.22° C | 92% | 1019.3 hPa | 0 mm | - | 0 W/m² | - |
| 1777537828 | 6.67° C | 92% | 1019.2 hPa | 0 mm | - | 0 W/m² | - |
| 1777537526 | 7.22° C | 91% | 1018.9 hPa | 0 mm | - | 0 W/m² | - |
| 1777537221 | 7.22° C | 91% | 1019.1 hPa | 0 mm | - | 0 W/m² | - |
| 1777536917 | 7.78° C | 91% | 1019.2 hPa | 0 mm | - | 0 W/m² | - |
| 1777536615 | 7.22° C | 91% | 1019 hPa | 0 mm | - | 0 W/m² | - |
| 1777536312 | 7.78° C | 90% | 1018.9 hPa | 0 mm | - | 0 W/m² | - |
| 1777536009 | 7.78° C | 90% | 1019 hPa | 0 mm | - | 0 W/m² | - |
| 1777535703 | 7.78° C | 90% | 1019.2 hPa | 0 mm | - | 0 W/m² | - |
* Rain latest hour (hover to see other rain measurements)
** Current wind speed in m/s (hover to see current wind gust speed)